Weather History for Rocky Mount, NC

Change the Weather History Date:

Thursday, December 27, 2012

  Actual Average Record
Temperature  
Mean Temperature 42 °F -  
Max Temperature 48 °F 49 °F 75 °F (1971)
Min Temperature 35 °F 30 °F 6 °F (1983)
Degree Days  
Heating Degree Days 23    
Moisture  
Dew Point 30 °F    
Average Humidity 61    
Maximum Humidity 82    
Minimum Humidity 44    
Precipitation  
Precipitation 0.00 in - - ()
Sea Level Pressure  
Sea Level Pressure 29.87 in    
Wind  
Wind Speed 11 mph (West)    
Max Wind Speed 16 mph    
Max Gust Speed 28 mph    
Visibility 10 miles    
Events      
Averages and records for this station are not official NWS values.
T = Trace of Precipitation, MM = Missing Value Source: NWS Daily Summary

Daily Weather History Graph

Daily Weather History Graph

Search for Another Location

Airport:

Trip Planner

Search our weather history database for the weather conditions in past years. The results will help you decide how hot, cold, wet, or windy it might be!

Date:

Astronomy

Dec. 27, 2012 Rise Set
Actual Time 7:20 AM EST 5:05 PM EST
Civil Twilight 6:52 AM EST 5:33 PM EST
Nautical Twilight 6:20 AM EST 6:05 PM EST
Astronomical Twilight 5:48 AM EST 6:37 PM EST
Moon 4:45 PM EST (12/27) 6:31 AM EST (12/27)
Length of Visible Light 10h 41m
Length of Day
9h 44m
Full, 100% of the Moon is Illuminated
Dec 27
Full
Dec 28
Full
Jan 4
Last Quarter
Jan 11
New
Jan 18
First Quarter

Hourly Weather History & Observations

Time (EST) Temp. Windchill Dew Point Humidity Pressure Visibility Wind Dir Wind Speed Gust Speed Precip Events Conditions
12:53 AM 43.0 °F 36.8 °F 37.9 °F 82% 29.62 in 10.0 mi WSW 11.5 mph 20.7 mph N/A   Mostly Cloudy
1:53 AM 43.0 °F 36.4 °F 36.0 °F 76% 29.65 in 10.0 mi WSW 12.7 mph 19.6 mph N/A   Overcast
2:53 AM 42.1 °F 36.6 °F 34.0 °F 73% 29.66 in 10.0 mi WSW 9.2 mph 18.4 mph N/A   Clear
3:53 AM 41.0 °F 34.3 °F 32.0 °F 70% 29.68 in 10.0 mi West 11.5 mph 17.3 mph N/A   Clear
4:53 AM 39.9 °F 33.9 °F 30.9 °F 70% 29.69 in 10.0 mi WSW 9.2 mph - N/A   Clear
5:53 AM 39.0 °F 32.8 °F 30.9 °F 73% 29.74 in 10.0 mi WSW 9.2 mph - N/A   Clear
6:53 AM 39.0 °F 33.4 °F 30.0 °F 70% 29.76 in 10.0 mi WSW 8.1 mph 16.1 mph N/A   Clear
7:53 AM 39.0 °F 34.0 °F 30.0 °F 70% 29.79 in 10.0 mi West 6.9 mph 18.4 mph N/A   Clear
8:53 AM 41.0 °F 32.8 °F 30.0 °F 65% 29.83 in 10.0 mi West 16.1 mph 24.2 mph N/A   Clear
9:53 AM 44.1 °F 37.1 °F 30.0 °F 58% 29.88 in 10.0 mi WNW 15.0 mph 20.7 mph N/A   Clear
10:53 AM 45.0 °F 38.5 °F 28.9 °F 53% 29.90 in 10.0 mi West 13.8 mph 26.5 mph N/A   Clear
11:53 AM 46.9 °F - 28.9 °F 50% 29.89 in 10.0 mi West 11.5 mph 25.3 mph N/A   Clear
12:53 PM 48.0 °F - 28.9 °F 48% 29.88 in 10.0 mi WNW 15.0 mph 21.9 mph N/A   Clear
1:53 PM 48.9 °F - 28.0 °F 44% 29.90 in 10.0 mi West 15.0 mph 27.6 mph N/A   Clear
2:53 PM 48.9 °F - 28.9 °F 46% 29.92 in 10.0 mi West 12.7 mph 20.7 mph N/A   Clear
3:53 PM 48.9 °F - 28.9 °F 46% 29.94 in 10.0 mi West 11.5 mph 18.4 mph N/A   Clear
4:53 PM 46.9 °F - 28.9 °F 50% 29.96 in 10.0 mi West 6.9 mph - N/A   Clear
5:53 PM 45.0 °F 41.8 °F 28.9 °F 53% 29.98 in 10.0 mi WNW 5.8 mph - N/A   Clear
7:53 PM 42.1 °F 36.1 °F 28.9 °F 60% 30.02 in 10.0 mi NW 10.4 mph 16.1 mph N/A   Clear
8:53 PM 39.9 °F 33.4 °F 27.0 °F 60% 30.05 in 10.0 mi NW 10.4 mph - N/A   Clear
9:53 PM 37.9 °F 29.6 °F 26.1 °F 62% 30.06 in 10.0 mi NW 13.8 mph 18.4 mph N/A   Clear
10:53 PM 36.0 °F 30.3 °F 25.0 °F 64% 30.07 in 10.0 mi NNW 6.9 mph - N/A   Clear
11:53 PM 35.1 °F 29.3 °F 24.1 °F 64% 30.07 in 10.0 mi NNW 6.9 mph - N/A   Clear